CAPE
150 171 30 5 13 12 16 2 0 0 0 0 0 0 0 0 0 0 0 0 0 0 0 0 0 1 2 4 5 6 5 6 0 0 0 0 0 0 0 5 5 0 1
16 24 10 7 6 1 4 0 0 0 0 0 0 0 0 0 0 0 0 0 0 0 0 0 0 7 13 13 4 10 9 9 12 0 0 0 0 0 3 4 1 1 0
3 1 1 1 1 1 0 0 0 0 0 0 0 0 0 0 0 0 0 0 0 0 0 0 0 0 0 0 4 36 19 31 27 0 0 1 0 1 8 6 4 3 1
3 1 1 1 1 1 0 0 0 0 0 0 0 0 0 0 0 0 0 0 0 0 0 0 0 0 0 0 0 0 9 36 24 5 2 3 0 0 4 7 5 3 2
0 0 1 1 0 0 1 0 0 0 0 0 0 0 0 0 0 0 0 0 0 0 0 0 0 0 0 0 0 0 0 0 19 33 8 0 0 1 1 1 3 6 7
0 0 0 0 0 0 0 0 0 0 0 0 0 0 0 0 0 0 0 0 0 0 0 0 0 0 0 0 0 0 0 0 0 33 13 1 1 0 0 1 5 4 9
0 0 0 0 0 0 0 0 0 0 0 0 0 0 0 0 0 0 0 0 0 0 0 0 0 0 0 0 0 0 0 0 0 3 17 34 0 0 0 0 0 2 7
0 0 0 0 0 0 0 0 0 0 0 0 0 0 0 0 0 0 0 0 0 0 0 0 0 0 0 0 0 0 0 0 0 0 0 1 23 31 3 0 0 0 5
0 0 0 0 0 0 0 0 0 0 0 0 0 0 0 0 0 0 0 0 0 0 0 0 0 0 0 0 0 0 0 0 0 0 0 0 0 0 27 23 5 0 0
0 0 0 0 0 0 0 0 0 0 0 0 0 0 0 0 0 0 0 0 0 0 0 0 0 0 0 0 0 0 0 0 0 0 0 0 0 0 0 7 38 14 0
0 0 0 0 0 0 0 0 0 0 0 0 0 0 0 0 0 0 0 0 0 0 0 0 0 0 0 0 0 0 0 0 0 0 0 0 0 0 0 0 0 44 13
0 0 0 0 0 0 0 0 0 0 0 0 0 0 0 0 0 0 0 0 0 0 0 0 0 0 0 0 0 0 0 0 0 0 0 0 0 0 0 0 0 9 39
0 0 0 0 0 0 0 0 0 0 0 0 0 0 0 0 0 0 0 0 0 0 0 0 0 0 0 0 0 0 0 0 0 0 0 0 0 0 0 0 0 0 33
0 0 0 0 0 0 0 0 0 0 0 0 0 0 0 0 0 0 0 0 0 0 0 0 0 0 0 0 0 0 0 0 0 0 0 0 0 0 0 0 0 0 12
0 0 0 0 0 0 0 0 0 0 0 0 0 0 0 0 0 0 0 0 0 0 0 0 0 0 0 0 0 0 0 0 0 0 0 0 0 0 0 0 0 0 16
0 0 0 0 0 0 0 0 0 0 0 0 0 0 0 0 0 0 0 0 0 0 0 0 0 0 0 0 0 0 0 0 0 0 0 0 0 0 0 0 0 0 7
0 0 0 0 0 0 0 0 0 0 0 0 0 0 0 0 0 0 0 0 0 0 0 0 0 0 0 0 0 0 0 0 0 0 0 0 0 0 0 0 0 0 0
0 0 0 0 0 0 0 0 0 0 0 0 0 0 0 0 0 0 0 0 0 0 0 0 0 0 0 0 0 0 0 0 0 0 0 0 0 0 0 0 0 0 0
0 0 0 0 0 0 0 0 0 0 0 0 0 0 0 0 0 0 0 0 0 0 0 0 0 0 0 0 0 0 0 0 0 0 0 0 0 0 0 0 0 0 0
0 0 0 0 0 0 0 0 0 0 0 0 0 0 0 0 0 0 0 0 0 0 0 0 0 0 0 0 0 0 0 0 0 0 2 1 0 0 0 0 0 0 0
0 0 0 0 0 0 0 0 0 0 0 0 0 0 0 0 0 0 0 0 0 0 0 0 0 0 0 0 0 0 0 0 0 0 0 0 5 5 1 0 0 0 0
0 0 0 0 0 0 0 0 0 0 0 0 0 0 0 0 0 0 0 0 0 0 0 1 0 0 0 0 0 0 0 0 0 0 0 0 0 0 0 2 1 0 0
0 0 0 0 0 0 0 0 0 0 0 0 0 0 0 0 0 0 0 0 0 0 0 1 0 0 0 0 0 0 0 0 0 0 0 0 0 0 0 0 0 2 1
0 0 0 0 0 0 0 0 0 0 0 0 0 0 0 0 0 0 0 0 0 0 0 0 0 0 0 0 0 0 0 0 0 0 1 2 0 0 0 0 0 0 0
0 0 0 0 0 0 0 0 0 0 0 0 0 0 0 0 0 0 1 0 0 0 0 0 0 1 3 4 8 7 5 9 3 2 0 0 1 0 0 0 0 0 0
0 0 0 0 0 0 0 0 0 0 0 0 0 0 0 0 0 1 1 0 0 0 0 2 0 0 7 1 3 1 1 2 2 3 0 1 1 0 1 0 0 0 0
CIN
-74 -71 -72 -26 -25 -36 -26 -35 -0 -0 -0 -0 -0 -0 -0 -0 -0 -0 -0 -0 -0 -0 -0 -0 -0 -0 -0 -0 -0 -0 -1 -1 -8 -0 -0 -0 -0 -0 -0 -2 -1 -2 -2
-21 -19 -26 -21 -36 -50 -6 -0 -0 -0 -0 -0 -0 -0 -0 -0 -0 -0 -0 -0 -0 -0 -0 -0 -0 -0 -0 -0 -1 -2 -0 -1 -4 -4 -0 -0 -0 -0 -0 -1 -4 -0 -0
-46 -0 -0 -0 -0 -0 -0 -0 -0 -0 -0 -0 -0 -0 -0 -0 -0 -0 -0 -0 -0 -0 -0 -0 -0 -0 -0 -0 -0 -0 -0 -1 -4 -5 -4 -3 -0 -0 -1 -1 -1 -0 -0
-0 -0 -0 -0 -0 -0 -0 -0 -0 -0 -0 -0 -0 -0 -0 -0 -0 -0 -0 -0 -0 -0 -0 -0 -0 -0 -0 -0 -0 -0 -8 -0 -5 -12 -9 -8 -0 -0 -0 -1 -1 -1 -2
-0 -0 -0 -0 -0 -0 -0 -0 -0 -0 -0 -0 -0 -0 -0 -0 -0 -0 -0 -0 -0 -0 -0 -0 -0 -0 -0 -0 -0 -0 -0 -0 -1 -0 -11 -0 -0 -0 -0 -0 -0 -1 -0
-0 -0 -0 -0 -0 -0 -0 -0 -0 -0 -0 -0 -0 -0 -0 -0 -0 -0 -0 -0 -0 -0 -0 -0 -0 -0 -0 -0 -0 -0 -0 -0 -0 -0 -1 -22 -18 -13 -0 -0 -0 -0 -1
-0 -0 -0 -0 -0 -0 -0 -0 -0 -0 -0 -0 -0 -0 -0 -0 -0 -0 -0 -0 -0 -0 -0 -0 -0 -0 -0 -0 -0 -0 -0 -0 -0 -0 -0 -0 -0 -0 -0 -0 -0 -0 -0
-0 -0 -0 -0 -0 -0 -0 -0 -0 -0 -0 -0 -0 -0 -0 -0 -0 -0 -0 -0 -0 -0 -0 -0 -0 -0 -0 -0 -0 -0 -0 -0 -0 -0 -0 -0 -0 -0 -0 -0 -0 -0 -0
-0 -0 -0 -0 -0 -0 -0 -0 -0 -0 -0 -0 -0 -0 -0 -0 -0 -0 -0 -0 -0 -0 -0 -0 -0 -0 -0 -0 -0 -0 -0 -0 -0 -0 -0 -0 -0 -0 -0 -0 -0 -0 -0
-0 -0 -0 -0 -0 -0 -0 -0 -0 -0 -0 -0 -0 -0 -0 -0 -0 -0 -0 -0 -0 -0 -0 -0 -0 -0 -0 -0 -0 -0 -0 -0 -0 -0 -0 -0 -0 -0 -0 -0 -0 -0 -0
-0 -0 -0 -0 -0 -0 -0 -0 -0 -0 -0 -0 -0 -0 -0 -0 -0 -0 -0 -0 -0 -0 -0 -0 -0 -0 -0 -0 -0 -0 -0 -0 -0 -0 -0 -0 -0 -0 -0 -0 -0 -0 -0
-0 -0 -0 -0 -0 -0 -0 -0 -0 -0 -0 -0 -0 -0 -0 -0 -0 -0 -0 -0 -0 -0 -0 -0 -0 -0 -0 -0 -0 -0 -0 -0 -0 -0 -0 -0 -0 -0 -0 -0 -0 -2 -0
-0 -0 -0 -0 -0 -0 -0 -0 -0 -0 -0 -0 -0 -0 -0 -0 -0 -0 -0 -0 -0 -0 -0 -0 -0 -0 -0 -0 -0 -0 -0 -0 -0 -0 -0 -0 -0 -0 -0 -0 -0 -0 -1
-0 -0 -0 -0 -0 -0 -0 -0 -0 -0 -0 -0 -0 -0 -0 -0 -0 -0 -0 -0 -0 -0 -0 -0 -0 -0 -0 -0 -0 -0 -0 -0 -0 -0 -0 -0 -0 -0 -0 -0 -0 -0 -0
-0 -0 -0 -0 -0 -0 -0 -0 -0 -0 -0 -0 -0 -0 -0 -0 -0 -0 -0 -0 -0 -0 -0 -0 -0 -0 -0 -0 -0 -0 -0 -0 -0 -0 -0 -0 -0 -0 -0 -0 -0 -0 -0
-0 -0 -0 -0 -0 -0 -0 -0 -0 -0 -0 -0 -0 -0 -0 -0 -0 -0 -0 -0 -0 -0 -0 -0 -0 -0 -0 -0 -0 -0 -0 -0 -0 -0 -0 -0 -0 -0 -0 -0 -0 -0 -0
-0 -0 -0 -0 -0 -0 -0 -0 -0 -0 -0 -0 -0 -0 -0 -0 -0 -0 -0 -0 -0 -0 -0 -0 -0 -0 -0 -0 -0 -0 -0 -0 -0 -0 -0 -0 -0 -0 -0 -0 -0 -0 -0
-0 -0 -0 -0 -0 -0 -0 -0 -0 -0 -0 -0 -0 -0 -0 -0 -0 -0 -0 -0 -0 -0 -0 -0 -0 -0 -0 -0 -0 -0 -0 -0 -0 -0 -0 -0 -0 -0 -0 -0 -0 -0 -0
-0 -0 -0 -0 -0 -0 -0 -0 -0 -0 -0 -0 -0 -0 -0 -0 -0 -0 -0 -0 -0 -0 -0 -0 -0 -0 -0 -0 -0 -0 -0 -0 -0 -0 -0 -0 -0 -0 -0 -0 -0 -0 -0
-0 -0 -0 -0 -0 -0 -0 -0 -0 -0 -0 -0 -0 -0 -0 -0 -0 -0 -0 -0 -0 -0 -0 -0 -0 -0 -0 -0 -0 -0 -0 -0 -0 -0 -0 -0 -0 -0 -0 -0 -0 -0 -0
-0 -0 -0 -0 -0 -0 -0 -0 -0 -0 -0 -0 -0 -0 -0 -0 -0 -0 -0 -0 -0 -0 -0 -0 -0 -0 -0 -0 -0 -0 -0 -0 -0 -0 -0 -0 -0 -0 -0 -0 -0 -0 -0
-0 -0 -0 -0 -0 -0 -0 -0 -0 -0 -0 -0 -0 -0 -0 -0 -0 -0 -0 -0 -0 -0 -0 -0 -0 -0 -0 -0 -0 -0 -0 -0 -0 -0 -0 -0 -0 -0 -0 -0 -0 -0 -0
-0 -0 -0 -0 -0 -0 -0 -0 -0 -0 -0 -0 -0 -0 -0 -0 -0 -0 -0 -0 -0 -0 -1 -1 -1 -1 -0 -0 -0 -0 -0 -0 -0 -0 -0 -0 -0 -0 -0 -0 -0 -0 -0
-0 -0 -0 -0 -0 -0 -0 -0 -0 -0 -0 -0 -0 -0 -0 -0 -0 -0 -0 -0 -0 -0 -0 -1 -0 -0 -0 -0 -0 -0 -0 -0 -0 -0 -1 -0 -0 -0 -0 -0 -0 -0 -0
-0 -0 -0 -0 -0 -0 -0 -0 -0 -0 -0 -0 -0 -0 -0 -0 -0 -3 -1 -0 -0 -0 -0 -0 -0 -2 -3 -4 -3 -1 -1 -0 -0 -0 -0 -0 -0 -0 -0 -0 -0 -0 -0
-0 -0 -0 -0 -0 -0 -0 -0 -0 -0 -0 -0 -0 -0 -0 -0 -0 -3 -2 -0 -1 -1 -0 -2 -0 -0 -0 -1 -1 -0 -0 -0 -0 -0 -0 -0 -0 -0 -0 -0 -0 -0 -0
Wind_Speed
16 15 15 14 16 17 18 19 20 21 22 23 23 23 23 23 23 23 23 24 24 25 25 25 25 24 24 23 23 23 22 21 20 21 21 24 26 25 24 24 25 24 26
17 17 16 17 18 18 20 20 21 22 23 23 23 23 24 25 25 26 25 25 25 26 26 25 26 26 26 26 25 23 24 24 23 21 21 25 26 25 24 25 25 26 27
17 17 18 19 20 19 20 20 21 22 23 23 25 25 25 25 24 25 26 27 28 27 27 27 27 26 27 27 28 29 26 28 20 21 22 24 25 25 25 25 26 25 27
19 18 17 19 19 20 20 21 22 24 24 26 27 27 27 26 27 27 26 26 27 28 29 28 29 29 29 28 29 29 29 28 22 23 22 23 25 27 27 25 26 26 27
19 18 18 18 19 19 21 21 22 23 26 28 29 28 28 29 29 29 30 29 29 29 28 29 30 31 30 31 30 30 31 31 30 29 26 23 24 27 28 28 28 28 28
19 18 19 19 20 21 22 21 23 22 25 28 29 28 27 27 27 27 28 28 28 28 29 30 30 30 31 32 33 33 33 33 32 31 27 24 26 25 26 28 29 29 29
19 19 19 20 21 22 23 23 22 24 26 29 27 28 26 24 24 24 26 26 26 29 30 30 30 31 32 33 32 33 35 35 35 35 33 29 28 27 28 27 30 30 29
21 20 20 21 21 22 24 25 25 26 27 29 29 29 29 26 25 29 26 27 29 30 32 34 35 35 34 34 34 35 35 36 37 38 38 37 35 33 32 31 31 32 32
21 22 22 22 23 23 25 26 27 28 29 29 30 30 33 34 38 26 30 30 32 35 37 35 35 36 37 37 36 36 36 38 38 39 40 41 41 39 36 35 33 32 33
21 22 23 24 24 25 26 27 28 28 29 31 29 30 29 32 37 39 32 35 35 39 38 36 38 37 37 36 36 37 38 39 40 40 40 41 43 43 42 40 36 34 34
22 23 24 25 26 26 27 28 29 29 29 30 32 33 33 33 33 40 47 45 42 37 35 42 38 39 37 36 35 36 38 39 40 41 42 42 42 44 44 43 41 36 34
23 24 25 26 27 28 29 29 29 30 31 31 31 33 34 37 40 41 47 50 50 44 46 41 40 39 38 36 36 36 39 41 42 42 43 43 44 44 44 45 44 43 36
24 25 25 27 28 28 29 30 30 31 32 32 33 33 34 35 37 40 46 51 54 52 46 44 43 38 40 39 37 41 46 44 44 44 45 46 45 45 45 45 46 45 43
24 24 26 27 28 29 30 30 31 31 32 33 34 34 36 36 38 40 45 50 58 55 54 53 49 40 43 39 45 50 47 47 48 47 47 47 48 48 47 47 46 46 45
23 24 26 27 28 29 30 31 32 33 34 34 35 37 38 38 39 41 42 45 51 63 63 54 54 44 47 51 51 50 52 52 51 51 51 49 48 49 50 49 49 47 44
23 24 26 28 29 31 32 33 33 33 35 36 36 38 39 39 41 41 42 45 46 52 63 56 57 55 53 53 53 53 53 54 53 52 52 51 51 50 50 51 51 50 49
23 25 27 29 30 32 33 34 34 35 37 38 38 40 41 41 43 44 45 46 47 48 57 60 56 55 57 57 55 53 53 54 54 54 55 54 53 52 51 50 51 52 51
24 26 27 29 31 32 33 34 36 36 38 39 40 40 42 42 44 44 45 47 48 49 53 61 58 57 56 55 57 58 55 54 55 55 55 56 56 54 53 52 51 51 52
24 26 28 30 32 33 34 34 35 36 37 38 39 40 42 43 45 45 46 48 48 49 50 54 61 56 57 55 57 56 57 57 55 54 55 55 54 55 54 53 53 52 51
25 27 28 31 32 33 34 34 35 36 36 37 38 39 41 42 44 46 48 48 48 50 50 52 55 57 56 55 55 58 58 53 56 52 52 53 55 56 57 56 55 54 52
26 28 29 31 32 33 33 35 35 36 38 39 39 40 41 42 44 45 46 48 49 50 50 51 54 54 53 53 54 53 57 57 56 55 58 53 50 50 49 50 50 50 51
28 29 30 31 32 33 33 34 35 37 37 39 40 41 42 43 44 46 46 47 47 49 50 50 51 52 52 50 49 50 51 54 59 48 50 58 54 58 56 52 52 54 54
28 29 30 30 32 32 33 34 35 36 37 38 40 41 43 43 45 46 46 46 44 43 43 45 50 49 51 46 47 48 48 49 52 50 51 58 51 57 52 53 58 57 56
28 29 29 30 31 33 33 34 35 35 36 37 39 40 43 44 45 47 47 45 43 41 40 40 40 43 43 44 44 46 48 50 49 47 44 58 49 54 53 53 56 58 61
27 28 28 30 32 34 33 34 35 36 36 38 38 40 42 45 44 45 46 46 44 40 37 38 39 41 43 45 46 47 48 50 53 49 43 50 50 53 53 55 54 56 57
27 27 29 30 32 34 33 34 34 35 37 38 39 41 41 42 46 46 45 45 47 45 42 43 40 38 38 40 42 41 44 49 51 54 44 49 49 49 56 49 43 42 48
Wind_Direction
324 322 321 321 323 324 323 322 322 324 324 322 323 320 318 317 317 316 316 316 317 317 317 318 318 318 318 319 319 318 317 318 319 320 318 318 312 306 303 299 292 293 289
327 325 323 320 319 320 322 321 318 318 318 319 319 320 319 317 315 313 312 312 313 313 314 316 316 316 315 314 314 315 313 310 310 315 317 316 312 307 305 300 297 293 290
340 335 328 324 322 321 320 319 318 318 317 317 314 313 313 314 316 317 314 311 309 310 310 311 312 313 313 313 311 310 310 310 311 314 315 314 314 309 306 301 297 296 295
345 342 338 332 330 327 324 321 319 315 315 316 313 312 312 311 310 310 312 312 311 309 308 308 308 308 308 309 308 307 308 309 309 309 311 311 313 308 303 304 299 298 296
354 350 346 347 344 342 335 330 327 323 317 314 312 311 311 310 309 310 308 308 307 307 307 307 306 306 306 306 306 306 305 304 304 301 303 307 309 307 303 300 298 298 296
357 355 350 345 341 336 335 335 331 332 326 322 317 314 314 315 314 313 314 313 312 309 309 307 306 306 305 304 303 303 302 301 299 303 300 301 302 303 305 300 297 297 295
0 359 357 351 348 344 339 337 330 329 327 326 322 320 320 322 322 323 323 322 320 314 311 310 309 307 305 304 304 303 301 299 297 296 298 296 298 299 299 300 296 295 294
1 358 356 352 349 344 342 338 334 328 328 330 322 318 313 316 323 319 321 320 319 319 314 309 306 305 304 303 302 301 301 299 297 294 292 292 293 294 292 293 293 292 290
3 0 357 353 348 345 341 339 335 331 324 326 329 320 309 306 310 314 317 318 317 316 313 313 312 308 304 301 301 300 300 298 297 295 291 288 287 288 291 288 288 289 289
357 354 350 346 345 342 340 338 336 334 330 325 322 325 321 314 306 303 309 312 314 313 313 313 311 310 309 306 303 300 299 298 296 295 294 290 286 285 285 285 285 285 286
349 347 345 342 340 338 337 335 333 332 330 326 323 320 318 315 313 304 300 303 307 309 310 310 310 310 310 309 308 306 303 300 298 295 293 292 290 285 283 283 281 282 283
342 341 341 339 337 335 333 332 331 331 329 327 324 321 318 312 310 307 303 302 301 303 305 306 308 309 311 308 308 308 306 302 298 296 294 292 289 287 284 281 279 278 278
334 335 335 335 334 334 333 332 331 329 328 325 324 322 321 318 316 311 306 302 300 301 303 304 305 305 306 306 306 306 303 301 299 297 293 290 289 287 285 282 279 276 274
332 334 334 333 333 333 332 330 329 327 326 325 324 322 320 318 317 314 308 305 300 299 298 299 302 303 303 302 302 302 301 298 296 296 294 291 287 285 284 282 280 278 273
332 333 333 332 331 331 330 328 326 325 324 323 321 320 318 317 316 314 311 307 303 296 295 299 298 303 301 300 298 298 296 295 294 293 291 290 289 286 282 280 279 277 274
331 332 331 331 330 329 327 326 324 324 322 322 321 320 319 318 317 315 312 308 305 301 295 298 298 300 300 299 298 296 294 293 291 290 290 289 287 286 284 280 278 276 273
329 330 329 328 327 327 326 325 323 322 320 319 320 318 317 317 315 314 312 309 306 303 298 298 299 300 299 299 297 296 294 291 290 288 287 286 286 285 283 282 279 275 273
327 327 328 327 327 326 326 324 322 321 320 319 319 318 317 317 316 315 313 310 307 305 302 299 299 299 298 298 297 295 294 291 289 287 285 284 283 282 282 281 279 277 274
324 326 327 326 325 324 324 323 322 321 320 320 319 319 318 318 316 316 314 311 309 307 305 302 299 301 299 298 295 294 293 292 289 287 285 283 282 281 280 279 277 276 275
321 322 324 324 324 324 324 323 322 321 321 321 320 320 319 318 317 316 314 313 311 308 306 304 302 301 301 300 297 294 291 292 289 290 288 285 282 280 278 277 276 275 274
318 320 321 322 323 323 323 323 322 321 320 320 320 320 320 319 318 317 315 314 311 309 307 305 302 302 301 301 298 297 293 292 290 290 285 283 284 282 279 278 277 276 273
314 317 318 320 321 323 323 322 322 321 320 320 320 320 320 320 319 318 316 314 312 309 306 305 303 301 300 301 301 299 297 294 289 295 290 283 284 279 278 279 277 275 274
312 314 317 319 320 322 323 322 322 322 321 321 321 321 321 322 321 320 318 316 314 311 309 307 303 302 300 302 302 299 297 295 293 295 293 285 287 280 281 278 274 274 273
310 313 315 318 320 322 323 323 323 322 321 321 322 322 322 322 322 321 319 317 315 313 311 309 306 303 301 301 300 298 296 295 294 295 295 285 291 284 283 281 278 274 270
309 312 315 317 319 322 322 322 322 322 321 321 323 323 323 322 323 321 319 317 316 315 313 310 307 305 302 300 299 298 295 294 292 293 297 291 292 289 287 283 279 276 273
310 313 315 317 319 321 322 322 322 322 321 322 323 324 324 323 322 321 319 317 313 314 316 313 312 311 308 305 302 299 297 294 293 292 299 292 293 294 287 287 282 284 282